This is the latest recevied weather packets stored in our database for station/object W1QED. If no packets are shown the sender has not sent any weather packets the latest 1 day(s).
| Time | Temp. | Humidity | Pressure | Rain* | Wind** | Luminosity | Snow |
|---|---|---|---|---|---|---|---|
| 1778003122 | 26.67° C | 24% | 1006.4 hPa | 0 mm | 5.36 m/s, 221° | - | - |
| 1778002821 | 26.67° C | 25% | 1006.5 hPa | 0 mm | 7.6 m/s, 304° | - | - |
| 1778002520 | 26.67° C | 24% | 1006.6 hPa | 0 mm | 4.47 m/s, 281° | - | - |
| 1778002218 | 26.67° C | 26% | 1006.6 hPa | 0 mm | 4.47 m/s, 250° | - | - |
| 1778001917 | 26.11° C | 26% | 1006.7 hPa | 0 mm | 5.81 m/s, 145° | - | - |
| 1778001616 | 26.11° C | 27% | 1006.7 hPa | 0 mm | 4.92 m/s, 245° | - | - |
| 1778001374 | 26.67° C | 28% | 1006.7 hPa | 0 mm | 4.02 m/s, 221° | - | - |
| 1778001014 | 26.11° C | 28% | 1006.8 hPa | 0 mm | 5.36 m/s, 195° | - | - |
| 1778000714 | 26.67° C | 29% | 1007 hPa | 0 mm | 4.47 m/s, 230° | - | - |
| 1778000416 | 26.11° C | 27% | 1006.9 hPa | 0 mm | 6.26 m/s, 214° | - | - |
| 1778000110 | 26.11° C | 29% | 1007.2 hPa | 0 mm | 4.92 m/s, 154° | - | - |
| 1777999809 | 26.11° C | 29% | 1007.4 hPa | 0 mm | 4.02 m/s, 250° | - | - |
| 1777999507 | 26.67° C | 30% | 1007.3 hPa | 0 mm | 4.02 m/s, 210° | - | - |
| 1777999206 | 26.11° C | 30% | 1007.5 hPa | 0 mm | 2.68 m/s, 252° | - | - |
| 1777998905 | 25.56° C | 29% | 1007.5 hPa | 0 mm | 3.13 m/s, 271° | - | - |
| 1777998602 | 25° C | 30% | 1007.5 hPa | 0 mm | 4.02 m/s, 227° | - | - |
| 1777998302 | 25° C | 30% | 1007.7 hPa | 0 mm | 4.02 m/s, 203° | - | - |
| 1777998002 | 25° C | 29% | 1007.8 hPa | 0 mm | 5.36 m/s, 234° | - | - |
| 1777997761 | 25° C | 30% | 1007.8 hPa | 0 mm | 3.58 m/s, 217° | - | - |
| 1777997457 | 25° C | 30% | 1007.8 hPa | 0 mm | 4.02 m/s, 233° | - | - |
| 1777997156 | 25° C | 31% | 1008 hPa | 0 mm | 4.47 m/s, 198° | - | - |
| 1777996854 | 25° C | 30% | 1008.2 hPa | 0 mm | 4.92 m/s, 182° | - | - |
| 1777996553 | 24.44° C | 29% | 1008.2 hPa | 0 mm | 4.92 m/s, 195° | - | - |
| 1777996251 | 24.44° C | 32% | 1008.5 hPa | 0 mm | 4.02 m/s, 242° | - | - |
| 1777995960 | 24.44° C | 33% | 1008.4 hPa | 0 mm | 3.58 m/s, 236° | - | - |
* Rain latest hour (hover to see other rain measurements)
** Current wind speed in m/s (hover to see current wind gust speed)